Regional Weather Roundup
Issued by NWS Grand Forks, ND

Home | Current Version | Previous Version | Text Only | Print | Product List | Glossary Off
Versions: 1 2 3 4 5 6 7 8 9 10 11 12 13 14 15 16 17 18 19 20 21 22 23 24 25 26 27 28 29 30 31 32 33 34 35 36 37 38 39 40 41 42 43 44 45 46 47 48 49 50

000
ASUS43 KFGF 061631
RWRFGF
PRAIRIE TO PINES  WEATHER ROUNDUP
NATIONAL WEATHER SERVICE EASTERN NORTH DAKOTA/GRAND FORKS ND
1000 AM CST FRI MAR 06 2015

 **SATELLITE DATA USED TO AUGMENT SKY COVER AT AUTOMATED STATIONS**
 *****  WEATHER ACROSS EASTERN NORTH DAKOTA  *****

CITY           SKY/WX    TMP DP  RH WIND       PRES   REMARKS
GRAND FORKS    MOSUNNY   25  14  63 NW9       30.07R WCI  15
GRAND FRKS AFB SUNNY     26  12  56 NW8       30.07R WCI  17
GRAND FRKS NWS   N/A     30 N/A N/A MISG        N/A
DEVILS LAKE    SUNNY     23  16  74 W8        30.06S WCI  14
FARGO          SUNNY     26  14  60 NW12      30.09S WCI  16
WAHPETON ARPT  SUNNY     27  14  59 N8        30.11R WCI  18
$$

 ***** WEATHER ACROSS CENTRAL AND WESTERN NORTH DAKOTA  *****

CITY           SKY/WX    TMP DP  RH WIND       PRES   REMARKS
BISMARCK       MOSUNNY   26  17  68 W6        30.13S WCI  19
MINOT          PTSUNNY   24  15  68 SW13      30.06R WCI  12
JAMESTOWN      SUNNY     26  16  65 NW9       30.08R WCI  17
MINOT AFB      PTSUNNY   23  18  81 SW9       30.05R WCI  13
GARRISON         N/A     23  16  74 W6        30.09R WCI  16
WILLISTON      CLOUDY    26  19  74 S7        30.05F WCI  18
DICKINSON      CLOUDY    34  19  54 SW8       30.05S
HETTINGER      CLOUDY    36  18  48 W6        30.09S
$$

 *****  OTHER AIRPORT OBSERVATIONS IN OUR AREA  *****

CITY           SKY/WX    TMP DP  RH WIND       PRES   REMARKS
WALHALLA         N/A     23  12  63 W8        30.04S WCI  14
GRAFTON AIRPOR NOT AVBL
VALLEY CITY AR FAIR      27  18  69 NW9       30.09R WCI  17
CANDO          FAIR      23  16  74 W12       30.05S WCI  12
CAVALIER APRT  FAIR      25  14  63 SW5       30.04F WCI  19
GWINNER        SUNNY     30  18  59 NW13      30.11S WCI  20
SHEYENNE NWR     N/A     26  13  58 N7        29.95S WCI  18
ROLLA          FAIR      27  16  63 SW10      30.01S WCI  17
 ***** THE ABOVE OBSERVATIONS ARE NON NWS ARE NOT QUALITY
       CONTROLLED AND MAY MIS-REPORT RAIN FOR SNOW...
$$

  *****  WEATHER ACROSS NORTHERN MINNESOTA  *****

CITY           SKY/WX    TMP DP  RH WIND       PRES   REMARKS
FLAG ISLAND    SUNNY     19   9  63 W12       29.96R WCI   7
WARROAD        SUNNY     18   9  68 SW6       29.99R WCI   9
ROSEAU         SUNNY     18  10  73 W8        30.01R WCI   7
HALLOCK        SUNNY     19  12  73 W6        30.04R WCI  11
THF RVR FALLS  SUNNY     19  10  68 W8        30.05R WCI   9
BAUDETTE       SUNNY     18   8  65 W8        29.96R WCI   8
WASKISH        SUNNY     18  10  73 CALM      30.00R
CROOKSTON      SUNNY     25  14  63 NW8       30.08R WCI  16
STEPHEN NDAWN    N/A     19  12  73 W6          N/A  WCI  11
GREENBUSH NDAW   N/A     19  12  73 W9          N/A  WCI   9
$$
  *****  WEATHER ACROSS CENTRAL AND WEST MINNESOTA  *****

CITY           SKY/WX    TMP DP  RH WIND       PRES   REMARKS
FOSSTON        SUNNY     21  10  63 W8        30.05R WCI  12
BEMIDJI        SUNNY     22  10  59 W9        30.01R WCI  11
PARK RAPIDS    SUNNY     22  10  60 NW8       30.00R WCI  12
ELBOW LAKE     FAIR      20  13  73 NW10      30.07R WCI   9
WADENA         SUNNY     21  10  63 NW9       30.04R WCI  11
DETROIT LAKES  SUNNY     23  14  68 N10       30.07R WCI  12
MOORHEAD       SUNNY     25  16  68 NW7       30.10S WCI  17
FERGUS FALLS   SUNNY     19  10  68 NW12      30.12R WCI   7
MORRIS MN      SUNNY     25  16  68 NW15      30.08R WCI  12
STAPLES        SUNNY     21  10  63 NW8       30.03R WCI  12
$$
  *****  WEATHER ELSEWHERE ACROSS MINNESOTA  *****

CITY           SKY/WX    TMP DP  RH WIND       PRES   REMARKS
DULUTH         MOSUNNY   19   8  62 W17       29.93S WCI   4
INTRNTL FALLS  SUNNY     19   5  54 W9        29.94R WCI   8
ELY            SUNNY     21   7  53 W12G17    29.89S WCI   9
CLOQUET        SUNNY     21   9  58 W10       29.95S WCI  10
WHEATON        SUNNY     23  14  68 NW10      30.13R WCI  12
BRAINERD       SUNNY     21  10  62 NW6       30.01R WCI  13
HIBBING        SUNNY     20   6  55 NW12G18   29.94R WCI   8
ALEXANDRIA     SUNNY     21  12  68 NW8       30.04R WCI  11
SAINT CLOUD    SUNNY     24  12  60 NW12      30.03S WCI  13
MINNEAPOLIS    SUNNY     25  11  55 SW10      30.07S WCI  15
$$

  *****  WEATHER ACROSS SOUTH DAKOTA  *****

CITY           SKY/WX    TMP DP  RH WIND       PRES   REMARKS
SIOUX FALLS    MOSUNNY   38  20  48 W8        30.11R
BROOKINGS      NOT AVBL
WATERTOWN      SUNNY     26  16  65 NW9       30.09R WCI  17
HURON          SUNNY     32  19  58 NW12      30.14R WCI  23
SISSETON         N/A     27  15  61 N16       30.09R WCI  15
ABERDEEN       SUNNY     29  17  61 NW12      30.14R WCI  19
MITCHELL       SUNNY     42  21  43 NW16G25   30.13R
PIERRE         MOSUNNY   36  19  50 NW10      30.14R
MOBRIDGE       MOSUNNY   31  18  58 W5        30.10R
RAPID CITY     PTSUNNY   47  20  34 NW8       30.14R
$$

  *****  SOME WEATHER IN NEARBY STATES *****

CITY           SKY/WX    TMP DP  RH WIND       PRES   REMARKS
GLASGOW MT     SUNNY     36  21  54 W9        30.04R
GREAT FALLS MT PTSUNNY   47  18  31 SW23G31   30.14R
CHEYENNE WY    MOSUNNY   38  13  35 W14G24    30.27R
SCOTTSBLUFF NE SUNNY     42  22  44 NW14      30.26R
OMAHA NE       SUNNY     36  17  46 SW8       30.23R
DES MOINES IA  MOSUNNY   34  18  52 W14       30.20R WCI  25
DAVENPORT IA   SUNNY     22   9  57 S21G29    30.27F WCI   6
CHICAGO IL     MOSUNNY   16   4  59 S15       30.37F WCI   1
EAU CLAIRE WI  CLOUDY    19   6  57 S13       30.07F WCI   6
LA CROSSE WI   SUNNY     19   6  57 S10       30.17F WCI   7
$$

  *****  SOME NATIONAL WEATHER *****

CITY           SKY/WX    TMP DP  RH WIND       PRES   REMARKS
LA GUARDIA NY  SUNNY     22   2  42 CALM      30.55S
RALEIGH NC     MOSUNNY   29   6  38 NE12G18   30.52F WCI  19
ATLANTA GA     PTSUNNY   39  30  70 N7        30.42S
NEW ORLEANS LA PTSUNNY   39  23  52 N17G25    30.51S
OKLAHOMA CITY  SUNNY     42  22  44 S17       30.49S
ALBUQUERQUE NM SUNNY     38  16  40 N6        30.42R
SALT LAKE CITY MOSUNNY   37  24  59 SE12      30.46R
LOS ANGELES CA SUNNY     61  25  25 NE3       30.15S
BOISE ID       SUNNY     38  21  50 CALM      30.44R
SEATTLE WA     PTSUNNY   41  36  82 CALM      30.41R
$$

*** WEATHER ACROSS MANITOBA...SASKATCHEWAN AND ONTARIO ***
                ***ONTARIO***

CITY           SKY/WX    TMP DP  RH WIND       PRES   REMARKS
GERALDTON      LGT SNOW  16   7  67 W12G22    29.76F VSB 1   WCI   3
THUNDER BAY    MOSUNNY   21   9  58 W10G17    29.87F WCI  10
SIOUX LOOKOUT  MOSUNNY   14   3  62 W9G18     29.84R WCI   2
TORONTO        MOSUNNY   16   3  57 SW15G21   30.44F WCI   1
BIG TROUT LK   LGT SNOW   9  -2  61 NW16G23   29.70R WCI  -9
PICKLE LAKE    PTSUNNY   14   1  57 W10G23    29.72R WCI   1
DRYDEN         SUNNY     16   5  62 W9        29.87R WCI   4
KENORA         MOSUNNY   18   5  57 NW9G18    29.92  WCI   6
$$
                *** MANITOBA***

CITY           SKY/WX    TMP DP  RH WIND       PRES   REMARKS
BRANDON        PTSUNNY   14   9  79 W9        29.99S WCI   2
DAUPHIN          N/A     28  16  59 MISG      29.90F
ISLAND LAKE    MOSUNNY    7  -2  66 W12       29.80R WCI  -9
PILOT MOUND      N/A     10   5  79 SW5         N/A  WCI   2
THE PAS        FLURRIES  19  18  93 SE7       29.77F WCI  10
THOMPSON       PTSUNNY    3  -6  66 N3        29.81S
WINNIPEG       MOSUNNY   16   7  67 W12       30.01R WCI   3
LYNN LAKE      LGT SNOW   7   3  85 VRB2      29.77S
CHURCHILL      CRYSTALS -15 -20  76 W9        29.82R WCI -33
GILLAM         SUNNY     -6 -15  65 N6        29.81R WCI -18
$$
                ***SASKATCHEWAN***

CITY           SKY/WX    TMP DP  RH WIND       PRES   REMARKS
ESTEVAN        CLOUDY    25  18  74 SW13      30.01F WCI  13
KINDERSLEY     MOSUNNY   32  27  80 W12       29.92  WCI  23
LLOYDMINSTER   PTSUNNY   37  32  81 W20G31    29.83R
PRINCE ALBERT  PTSUNNY   28  23  80 W6        29.79S WCI  22
REGINA         CLOUDY    21  18  86 S9        29.93F WCI  11
YORKTON        PTSUNNY   25  18  74 SW15      29.86F WCI  12
N. BATTLEFORD  LGT RAIN  37  34  87 W10       29.84S
LA RONGE       CLOUDY    27  18  69 W7        29.73R WCI  19
SASKATOON      PTSUNNY   30  25  80 SW12      29.85S WCI  21
SWIFT CURRENT  PTSUNNY   34  27  75 SW13      29.94S WCI  25
$$
NOTE: THESE ARE AUTOMATED STATIONS WITH LIMITED QUALITY CONTROL
      "FAIR" INDICATES FEW OR NO CLOUDS BELOW 12,000 FEET WITH NO
      SIGNIFICANT WEATHER AND/OR OBSTRUCTIONS TO VISIBILITY.
      SKY/WX - SKY CONDITION AND SIGNIFICANT WEATHER.
      TMP - AIR TEMPERATURE.    DP   - DEWPOINT TEMPERATURE.
      RH  - RELATIVE HUMIDITY.  PRES - PRESSURE.
      HX  - HEAT INDEX.         WCI  - WIND CHILL INDEX.
$



USA.gov is the U.S. government's official web portal to all federal, state and local government web resources and services.